Year,Month,Day,Hour,Minute,Value (Times are PST for temperature in C)
2006,07,18,00,00,14.60
2006,07,18,00,01,14.60
2006,07,18,00,02,14.60
2006,07,18,00,03,14.60
2006,07,18,00,04,14.50
2006,07,18,00,05,14.50
2006,07,18,00,06,14.50
2006,07,18,00,07,14.50
2006,07,18,00,08,14.50
2006,07,18,00,09,14.50
2006,07,18,00,10,14.50
2006,07,18,00,11,14.40
2006,07,18,00,12,14.40
2006,07,18,00,13,14.40
2006,07,18,00,14,14.40
2006,07,18,00,15,14.40
2006,07,18,00,16,14.40
2006,07,18,00,17,14.40
2006,07,18,00,18,14.30
2006,07,18,00,19,14.30
2006,07,18,00,20,14.40
2006,07,18,00,21,14.40
2006,07,18,00,22,14.50
2006,07,18,00,23,14.50
2006,07,18,00,24,14.60
2006,07,18,00,25,14.60
2006,07,18,00,26,14.70
2006,07,18,00,27,14.80
2006,07,18,00,28,14.80
2006,07,18,00,29,14.80
2006,07,18,00,30,14.90
2006,07,18,00,31,15.00
2006,07,18,00,32,15.00
2006,07,18,00,33,15.10
2006,07,18,00,34,15.10
2006,07,18,00,35,15.20
2006,07,18,00,36,15.20
2006,07,18,00,37,15.30
2006,07,18,00,38,15.30
2006,07,18,00,39,15.40
2006,07,18,00,40,15.40
2006,07,18,00,41,15.40
2006,07,18,00,42,15.50
2006,07,18,00,43,15.50
2006,07,18,00,44,15.50
2006,07,18,00,45,15.50
2006,07,18,00,46,15.50
2006,07,18,00,47,15.50
2006,07,18,00,48,15.50
2006,07,18,00,49,15.50
2006,07,18,00,50,15.50
2006,07,18,00,51,15.50
2006,07,18,00,52,15.50
2006,07,18,00,53,15.50
2006,07,18,00,54,15.50
2006,07,18,00,55,15.50
2006,07,18,00,56,15.50
2006,07,18,00,57,15.50
2006,07,18,00,58,15.50
2006,07,18,00,59,15.50
2006,07,18,01,00,15.50
2006,07,18,01,01,15.50
2006,07,18,01,02,15.50
2006,07,18,01,03,15.50
2006,07,18,01,04,15.50
2006,07,18,01,05,15.40
2006,07,18,01,06,15.40
2006,07,18,01,07,15.40
2006,07,18,01,08,15.40
2006,07,18,01,09,15.40
2006,07,18,01,10,15.30
2006,07,18,01,11,15.30
2006,07,18,01,12,15.30
2006,07,18,01,13,15.30
2006,07,18,01,14,15.30
2006,07,18,01,15,15.30
2006,07,18,01,16,15.20
2006,07,18,01,17,15.20
2006,07,18,01,18,15.20
2006,07,18,01,19,15.10
2006,07,18,01,20,15.10
2006,07,18,01,21,15.10
2006,07,18,01,22,15.10
2006,07,18,01,23,15.10
2006,07,18,01,24,15.10
2006,07,18,01,25,15.00
2006,07,18,01,26,15.00
2006,07,18,01,27,15.00
2006,07,18,01,28,15.00
2006,07,18,01,29,15.00
2006,07,18,01,30,14.90
2006,07,18,01,31,14.90
2006,07,18,01,32,14.90
2006,07,18,01,33,14.90
2006,07,18,01,34,14.90
2006,07,18,01,35,14.80
2006,07,18,01,36,14.80
2006,07,18,01,37,14.80
2006,07,18,01,38,14.80
2006,07,18,01,39,14.80
2006,07,18,01,40,14.80
2006,07,18,01,41,14.80
2006,07,18,01,42,14.80
2006,07,18,01,43,14.70
2006,07,18,01,44,14.70
2006,07,18,01,45,14.70
2006,07,18,01,46,14.60
2006,07,18,01,47,14.60
2006,07,18,01,48,14.50
2006,07,18,01,49,14.50
2006,07,18,01,50,14.50
2006,07,18,01,51,14.40
2006,07,18,01,52,14.40
2006,07,18,01,53,14.30
2006,07,18,01,54,14.30
2006,07,18,01,55,14.20
2006,07,18,01,56,14.20
2006,07,18,01,57,14.10
2006,07,18,01,58,14.00
2006,07,18,01,59,14.00
2006,07,18,02,00,13.90
2006,07,18,02,01,13.80
2006,07,18,02,02,13.80
2006,07,18,02,03,13.70
2006,07,18,02,04,13.70
2006,07,18,02,05,13.60
2006,07,18,02,06,13.60
2006,07,18,02,07,13.50
2006,07,18,02,08,13.50
2006,07,18,02,09,13.40
2006,07,18,02,10,13.40
2006,07,18,02,11,13.30
2006,07,18,02,12,13.30
2006,07,18,02,13,13.30
2006,07,18,02,14,13.20
2006,07,18,02,15,13.20
2006,07,18,02,16,13.20
2006,07,18,02,17,13.10
2006,07,18,02,18,13.10
2006,07,18,02,19,13.10
2006,07,18,02,20,13.00
2006,07,18,02,21,13.00
2006,07,18,02,22,13.00
2006,07,18,02,23,12.90
2006,07,18,02,24,12.90
2006,07,18,02,25,12.90
2006,07,18,02,26,12.90
2006,07,18,02,27,12.80
2006,07,18,02,28,12.80
2006,07,18,02,29,12.80
2006,07,18,02,30,12.80
2006,07,18,02,31,12.80
2006,07,18,02,32,12.80
2006,07,18,02,33,12.80
2006,07,18,02,34,12.70
2006,07,18,02,35,12.70
2006,07,18,02,36,12.70
2006,07,18,02,37,12.60
2006,07,18,02,38,12.60
2006,07,18,02,39,12.60
2006,07,18,02,40,12.60
2006,07,18,02,41,12.60
2006,07,18,02,42,12.50
2006,07,18,02,43,12.50
2006,07,18,02,44,12.50
2006,07,18,02,45,12.50
2006,07,18,02,46,12.50
2006,07,18,02,47,12.50
2006,07,18,02,48,12.40
2006,07,18,02,49,12.40
2006,07,18,02,50,12.40
2006,07,18,02,51,12.40
2006,07,18,02,52,12.40
2006,07,18,02,53,12.40
2006,07,18,02,54,12.40
2006,07,18,02,55,12.40
2006,07,18,02,56,12.40
2006,07,18,02,57,12.40
2006,07,18,02,58,12.40
2006,07,18,02,59,12.30
2006,07,18,03,00,12.30
2006,07,18,03,01,12.30
2006,07,18,03,02,12.30
2006,07,18,03,03,12.30
2006,07,18,03,04,12.30
2006,07,18,03,05,12.30
2006,07,18,03,06,12.30
2006,07,18,03,07,12.30
2006,07,18,03,08,12.30
2006,07,18,03,09,12.30
2006,07,18,03,10,12.30
2006,07,18,03,11,12.30
2006,07,18,03,12,12.30
2006,07,18,03,13,12.30
2006,07,18,03,14,12.40
2006,07,18,03,15,12.40
2006,07,18,03,16,12.40
2006,07,18,03,17,12.40
2006,07,18,03,18,12.40
2006,07,18,03,19,12.30
2006,07,18,03,20,12.30
2006,07,18,03,21,12.30
2006,07,18,03,22,12.30
2006,07,18,03,23,12.30
2006,07,18,03,24,12.30
2006,07,18,03,25,12.30
2006,07,18,03,26,12.30
2006,07,18,03,27,12.30
2006,07,18,03,28,12.30
2006,07,18,03,29,12.30
2006,07,18,03,30,12.30
2006,07,18,03,31,12.30
2006,07,18,03,32,12.20
2006,07,18,03,33,12.20
2006,07,18,03,34,12.20
2006,07,18,03,35,12.20
2006,07,18,03,36,12.20
2006,07,18,03,37,12.10
2006,07,18,03,38,12.10
2006,07,18,03,39,12.10
2006,07,18,03,40,12.10
2006,07,18,03,41,12.10
2006,07,18,03,42,12.10
2006,07,18,03,43,12.10
2006,07,18,03,44,12.00
2006,07,18,03,45,12.00
2006,07,18,03,46,12.00
2006,07,18,03,47,12.00
2006,07,18,03,48,12.00
2006,07,18,03,49,12.00
2006,07,18,03,50,12.00
2006,07,18,03,51,11.90
2006,07,18,03,52,11.90
2006,07,18,03,53,11.90
2006,07,18,03,54,11.90
2006,07,18,03,55,11.90
2006,07,18,03,56,11.80
2006,07,18,03,57,11.80
2006,07,18,03,58,11.80
2006,07,18,03,59,11.80
2006,07,18,04,00,11.80
2006,07,18,04,01,11.80
2006,07,18,04,02,11.80
2006,07,18,04,03,11.80
2006,07,18,04,04,11.80
2006,07,18,04,05,11.80
2006,07,18,04,06,11.80
2006,07,18,04,07,11.80
2006,07,18,04,08,11.80
2006,07,18,04,09,11.80
2006,07,18,04,10,11.80
2006,07,18,04,11,11.80
2006,07,18,04,12,11.70
2006,07,18,04,13,11.70
2006,07,18,04,14,11.70
2006,07,18,04,15,11.70
2006,07,18,04,16,11.70
2006,07,18,04,17,11.70
2006,07,18,04,18,11.70
2006,07,18,04,19,11.70
2006,07,18,04,20,11.70
2006,07,18,04,21,11.70
2006,07,18,04,22,11.70
2006,07,18,04,23,11.70
2006,07,18,04,24,11.70
2006,07,18,04,25,11.70
2006,07,18,04,26,11.70
2006,07,18,04,27,11.70
2006,07,18,04,28,11.60
2006,07,18,04,29,11.60
2006,07,18,04,30,11.60
2006,07,18,04,31,11.60
2006,07,18,04,32,11.60
2006,07,18,04,33,11.60
2006,07,18,04,34,11.60
2006,07,18,04,35,11.60
2006,07,18,04,36,11.60
2006,07,18,04,37,11.60
2006,07,18,04,38,11.60
2006,07,18,04,39,11.60
2006,07,18,04,40,11.50
2006,07,18,04,41,11.40
2006,07,18,04,42,11.40
2006,07,18,04,43,11.40
2006,07,18,04,44,11.40
2006,07,18,04,45,11.40
2006,07,18,04,46,11.40
2006,07,18,04,47,11.40
2006,07,18,04,48,11.30
2006,07,18,04,49,11.30
2006,07,18,04,50,11.30
2006,07,18,04,51,11.30
2006,07,18,04,52,11.30
2006,07,18,04,53,11.20
2006,07,18,04,54,11.20
2006,07,18,04,55,11.20
2006,07,18,04,56,11.10
2006,07,18,04,57,11.10
2006,07,18,04,58,11.10
2006,07,18,04,59,11.10
2006,07,18,05,00,11.10
2006,07,18,05,01,11.10
2006,07,18,05,02,11.10
2006,07,18,05,03,11.10
2006,07,18,05,04,11.00
2006,07,18,05,05,10.90
2006,07,18,05,06,10.90
2006,07,18,05,07,10.90
2006,07,18,05,08,10.90
2006,07,18,05,09,10.90
2006,07,18,05,10,10.90
2006,07,18,05,11,10.90
2006,07,18,05,12,10.90
2006,07,18,05,13,10.90
2006,07,18,05,14,10.90
2006,07,18,05,15,10.80
2006,07,18,05,16,10.80
2006,07,18,05,17,10.80
2006,07,18,05,18,10.80
2006,07,18,05,19,10.80
2006,07,18,05,20,10.80
2006,07,18,05,21,10.70
2006,07,18,05,22,10.70
2006,07,18,05,23,10.70
2006,07,18,05,24,10.70
2006,07,18,05,25,10.70
2006,07,18,05,26,10.70
2006,07,18,05,27,10.70
2006,07,18,05,28,10.70
2006,07,18,05,29,10.70
2006,07,18,05,30,10.70
2006,07,18,05,31,10.70
2006,07,18,05,32,10.80
2006,07,18,05,33,10.80
2006,07,18,05,34,10.80
2006,07,18,05,35,10.80
2006,07,18,05,36,10.80
2006,07,18,05,37,10.80
2006,07,18,05,38,10.80
2006,07,18,05,39,10.80
2006,07,18,05,40,10.80
2006,07,18,05,41,10.80
2006,07,18,05,42,10.80
2006,07,18,05,43,10.80
2006,07,18,05,44,10.80
2006,07,18,05,45,10.80
2006,07,18,05,46,10.80
2006,07,18,05,47,10.70
2006,07,18,05,48,10.70
2006,07,18,05,49,10.70
2006,07,18,05,50,10.70
2006,07,18,05,51,10.70
2006,07,18,05,52,10.70
2006,07,18,05,53,10.70
2006,07,18,05,54,10.70
2006,07,18,05,55,10.70
2006,07,18,05,56,10.70
2006,07,18,05,57,10.70
2006,07,18,05,58,10.70
2006,07,18,05,59,10.60
2006,07,18,06,00,10.60
2006,07,18,06,01,10.60
2006,07,18,06,02,10.60
2006,07,18,06,03,10.60
2006,07,18,06,04,10.60
2006,07,18,06,05,10.60
2006,07,18,06,06,10.60
2006,07,18,06,07,10.60
2006,07,18,06,08,10.60
2006,07,18,06,09,10.60
2006,07,18,06,10,10.70
2006,07,18,06,11,10.70
2006,07,18,06,12,10.70
2006,07,18,06,13,10.70
2006,07,18,06,14,10.70
2006,07,18,06,15,10.70
2006,07,18,06,16,10.70
2006,07,18,06,17,10.70
2006,07,18,06,18,10.80
2006,07,18,06,19,10.80
2006,07,18,06,20,10.80
2006,07,18,06,21,10.80
2006,07,18,06,22,10.80
2006,07,18,06,23,10.80
2006,07,18,06,24,10.80
2006,07,18,06,25,10.80
2006,07,18,06,26,10.80
2006,07,18,06,27,10.80
2006,07,18,06,28,10.80
2006,07,18,06,29,10.90
2006,07,18,06,30,10.90
2006,07,18,06,31,10.90
2006,07,18,06,32,10.90
2006,07,18,06,33,10.90
2006,07,18,06,34,10.90
2006,07,18,06,35,10.90
2006,07,18,06,36,11.00
2006,07,18,06,37,11.10
2006,07,18,06,38,11.10
2006,07,18,06,39,11.10
2006,07,18,06,40,11.10
2006,07,18,06,41,11.10
2006,07,18,06,42,11.10
2006,07,18,06,43,11.20
2006,07,18,06,44,11.20
2006,07,18,06,45,11.20
2006,07,18,06,46,11.20
2006,07,18,06,47,11.30
2006,07,18,06,48,11.30
2006,07,18,06,49,11.30
2006,07,18,06,50,11.40
2006,07,18,06,51,11.40
2006,07,18,06,52,11.40
2006,07,18,06,53,11.40
2006,07,18,06,54,11.40
2006,07,18,06,55,11.40
2006,07,18,06,56,11.40
2006,07,18,06,57,11.40
2006,07,18,06,58,11.40
2006,07,18,06,59,11.60
2006,07,18,07,00,11.60
2006,07,18,07,01,11.60
2006,07,18,07,02,11.60
2006,07,18,07,03,11.60
2006,07,18,07,04,11.60
2006,07,18,07,05,11.70
2006,07,18,07,06,11.70
2006,07,18,07,07,11.80
2006,07,18,07,08,11.80
2006,07,18,07,09,11.80
2006,07,18,07,10,11.80
2006,07,18,07,11,11.90
2006,07,18,07,12,12.00
2006,07,18,07,13,12.00
2006,07,18,07,14,12.10
2006,07,18,07,15,12.20
2006,07,18,07,16,12.30
2006,07,18,07,17,12.30
2006,07,18,07,18,12.40
2006,07,18,07,19,12.50
2006,07,18,07,20,12.50
2006,07,18,07,21,12.60
2006,07,18,07,22,12.60
2006,07,18,07,23,12.70
2006,07,18,07,24,12.80
2006,07,18,07,25,12.80
2006,07,18,07,26,12.80
2006,07,18,07,27,12.90
2006,07,18,07,28,13.00
2006,07,18,07,29,13.10
2006,07,18,07,30,13.30
2006,07,18,07,31,13.30
2006,07,18,07,32,13.50
2006,07,18,07,33,13.50
2006,07,18,07,34,13.60
2006,07,18,07,35,13.70
2006,07,18,07,36,13.70
2006,07,18,07,37,13.80
2006,07,18,07,38,13.90
2006,07,18,07,39,14.00
2006,07,18,07,40,14.10
2006,07,18,07,41,14.20
2006,07,18,07,42,14.20
2006,07,18,07,43,14.20
2006,07,18,07,44,14.30
2006,07,18,07,45,14.40
2006,07,18,07,46,14.40
2006,07,18,07,47,14.50
2006,07,18,07,48,14.50
2006,07,18,07,49,14.60
2006,07,18,07,50,14.70
2006,07,18,07,51,14.80
2006,07,18,07,52,14.80
2006,07,18,07,53,14.90
2006,07,18,07,54,15.00
2006,07,18,07,55,15.00
2006,07,18,07,56,15.00
2006,07,18,07,57,15.10
2006,07,18,07,58,15.10
2006,07,18,07,59,15.10
2006,07,18,08,00,15.10
2006,07,18,08,01,15.20
2006,07,18,08,02,15.20
2006,07,18,08,03,15.30
2006,07,18,08,04,15.30
2006,07,18,08,05,15.30
2006,07,18,08,06,15.30
2006,07,18,08,07,15.30
2006,07,18,08,08,15.30
2006,07,18,08,09,15.40
2006,07,18,08,10,15.40
2006,07,18,08,11,15.40
2006,07,18,08,12,15.40
2006,07,18,08,13,15.50
2006,07,18,08,14,15.50
2006,07,18,08,15,15.50
2006,07,18,08,16,15.60
2006,07,18,08,17,15.60
2006,07,18,08,18,15.60
2006,07,18,08,19,15.60
2006,07,18,08,20,15.60
2006,07,18,08,21,15.60
2006,07,18,08,22,15.60
2006,07,18,08,23,15.60
2006,07,18,08,24,15.60
2006,07,18,08,25,15.60
2006,07,18,08,26,15.60
2006,07,18,08,27,15.60
2006,07,18,08,28,15.60
2006,07,18,08,29,15.60
2006,07,18,08,30,15.60
2006,07,18,08,31,15.60
2006,07,18,08,32,15.70
2006,07,18,08,33,15.70
2006,07,18,08,34,15.70
2006,07,18,08,35,15.70
2006,07,18,08,36,15.70
2006,07,18,08,37,15.80
2006,07,18,08,38,15.80
2006,07,18,08,39,15.80
2006,07,18,08,40,15.80
2006,07,18,08,41,15.80
2006,07,18,08,42,15.80
2006,07,18,08,43,15.80
2006,07,18,08,44,15.80
2006,07,18,08,45,15.80
2006,07,18,08,46,15.80
2006,07,18,08,47,15.80
2006,07,18,08,48,15.90
2006,07,18,08,49,15.90
2006,07,18,08,50,15.90
2006,07,18,08,51,15.90
2006,07,18,08,52,15.80
2006,07,18,08,53,15.80
2006,07,18,08,54,15.80
2006,07,18,08,55,15.70
2006,07,18,08,56,15.70
2006,07,18,08,57,15.70
2006,07,18,08,58,15.70
2006,07,18,08,59,15.70
2006,07,18,09,00,15.70
2006,07,18,09,01,15.70
2006,07,18,09,02,15.70
2006,07,18,09,03,15.70
2006,07,18,09,04,15.70
2006,07,18,09,05,15.70
2006,07,18,09,06,15.70
2006,07,18,09,07,15.70
2006,07,18,09,08,15.80
2006,07,18,09,09,15.80
2006,07,18,09,10,15.80
2006,07,18,09,11,15.80
2006,07,18,09,12,15.70
2006,07,18,09,13,15.70
2006,07,18,09,14,15.70
2006,07,18,09,15,15.70
2006,07,18,09,16,15.70
2006,07,18,09,17,15.70
2006,07,18,09,18,15.80
2006,07,18,09,19,15.80
2006,07,18,09,20,15.80
2006,07,18,09,21,15.80
2006,07,18,09,22,15.90
2006,07,18,09,23,15.80
2006,07,18,09,24,15.80
2006,07,18,09,25,15.80
2006,07,18,09,26,15.80
2006,07,18,09,27,15.80
2006,07,18,09,28,15.80
2006,07,18,09,29,15.80
2006,07,18,09,30,15.80
2006,07,18,09,31,15.80
2006,07,18,09,32,15.80
2006,07,18,09,33,15.80
2006,07,18,09,34,15.90
2006,07,18,09,35,15.90
2006,07,18,09,36,15.90
2006,07,18,09,37,15.90
2006,07,18,09,38,15.80
2006,07,18,09,39,15.80
2006,07,18,09,40,15.90
2006,07,18,09,41,15.90
2006,07,18,09,42,16.00
2006,07,18,09,43,16.10
2006,07,18,09,44,16.10
2006,07,18,09,45,16.10
2006,07,18,09,46,16.10
2006,07,18,09,47,16.20
2006,07,18,09,48,16.20
2006,07,18,09,49,16.20
2006,07,18,09,50,16.20
2006,07,18,09,51,16.20
2006,07,18,09,52,16.20
2006,07,18,09,53,16.30
2006,07,18,09,54,16.30
2006,07,18,09,55,16.30
2006,07,18,09,56,16.30
2006,07,18,09,57,16.40
2006,07,18,09,58,16.40
2006,07,18,09,59,16.50
2006,07,18,10,00,16.60
2006,07,18,10,01,16.70
2006,07,18,10,02,16.70
2006,07,18,10,03,16.70
2006,07,18,10,04,16.70
2006,07,18,10,05,16.70
2006,07,18,10,06,16.70
2006,07,18,10,07,16.70
2006,07,18,10,08,16.70
2006,07,18,10,09,16.70
2006,07,18,10,10,16.70
2006,07,18,10,11,16.70
2006,07,18,10,12,16.70
2006,07,18,10,13,16.70
2006,07,18,10,14,16.60
2006,07,18,10,15,16.60
2006,07,18,10,16,16.60
2006,07,18,10,17,16.60
2006,07,18,10,18,16.60
2006,07,18,10,19,16.60
2006,07,18,10,20,16.60
2006,07,18,10,21,16.70
2006,07,18,10,22,16.70
2006,07,18,10,23,16.70
2006,07,18,10,24,16.70
2006,07,18,10,25,16.80
2006,07,18,10,26,16.90
2006,07,18,10,27,16.90
2006,07,18,10,28,17.00
2006,07,18,10,29,17.00
2006,07,18,10,30,17.00
2006,07,18,10,31,17.10
2006,07,18,10,32,17.10
2006,07,18,10,33,17.20
2006,07,18,10,34,17.30
2006,07,18,10,35,17.30
2006,07,18,10,36,17.10
2006,07,18,10,37,17.00
2006,07,18,10,38,16.90
2006,07,18,10,39,16.90
2006,07,18,10,40,16.90
2006,07,18,10,41,16.80
2006,07,18,10,42,16.80
2006,07,18,10,43,16.80
2006,07,18,10,44,16.80
2006,07,18,10,45,16.80
2006,07,18,10,46,16.90
2006,07,18,10,47,16.90
2006,07,18,10,48,17.00
2006,07,18,10,49,17.10
2006,07,18,10,50,17.20
2006,07,18,10,51,17.20
2006,07,18,10,52,17.30
2006,07,18,10,53,17.30
2006,07,18,10,54,17.30
2006,07,18,10,55,17.30
2006,07,18,10,56,17.40
2006,07,18,10,57,17.40
2006,07,18,10,58,17.50
2006,07,18,10,59,17.50
2006,07,18,11,00,17.60
2006,07,18,11,01,17.50
2006,07,18,11,02,17.40
2006,07,18,11,03,17.30
2006,07,18,11,04,17.10
2006,07,18,11,05,17.00
2006,07,18,11,06,16.90
2006,07,18,11,07,16.90
2006,07,18,11,08,17.00
2006,07,18,11,09,17.00
2006,07,18,11,10,17.10
2006,07,18,11,11,17.20
2006,07,18,11,12,17.30
2006,07,18,11,13,17.30
2006,07,18,11,14,17.30
2006,07,18,11,15,17.30
2006,07,18,11,16,17.30
2006,07,18,11,17,17.30
2006,07,18,11,18,17.30
2006,07,18,11,19,17.30
2006,07,18,11,20,17.30
2006,07,18,11,21,17.30
2006,07,18,11,22,17.30
2006,07,18,11,23,17.20
2006,07,18,11,24,17.20
2006,07,18,11,25,17.30
2006,07,18,11,26,17.30
2006,07,18,11,27,17.30
2006,07,18,11,28,17.30
2006,07,18,11,29,17.20
2006,07,18,11,30,17.20
2006,07,18,11,31,17.20
2006,07,18,11,32,17.20
2006,07,18,11,33,17.20
2006,07,18,11,34,17.20
2006,07,18,11,35,17.20
2006,07,18,11,36,17.20
2006,07,18,11,37,17.20
2006,07,18,11,38,17.20
2006,07,18,11,39,17.30
2006,07,18,11,40,17.40
2006,07,18,11,41,17.40
2006,07,18,11,42,17.40
2006,07,18,11,43,17.40
2006,07,18,11,44,17.40
2006,07,18,11,45,17.40
2006,07,18,11,46,17.40
2006,07,18,11,47,17.50
2006,07,18,11,48,17.60
2006,07,18,11,49,17.60
2006,07,18,11,50,17.70
2006,07,18,11,51,17.60
2006,07,18,11,52,17.60
2006,07,18,11,53,17.60
2006,07,18,11,54,17.70
2006,07,18,11,55,17.70
2006,07,18,11,56,17.80
2006,07,18,11,57,17.90
2006,07,18,11,58,17.90
2006,07,18,11,59,17.90
2006,07,18,12,00,17.90
2006,07,18,12,01,17.90
2006,07,18,12,02,18.10
2006,07,18,12,03,18.10
2006,07,18,12,04,18.20
2006,07,18,12,05,18.20
2006,07,18,12,06,18.10
2006,07,18,12,07,18.00
2006,07,18,12,08,17.90
2006,07,18,12,09,17.90
2006,07,18,12,10,17.90
2006,07,18,12,11,17.90
2006,07,18,12,12,17.90
2006,07,18,12,13,17.80
2006,07,18,12,14,17.80
2006,07,18,12,15,17.80
2006,07,18,12,16,17.80
2006,07,18,12,17,17.80
2006,07,18,12,18,17.80
2006,07,18,12,19,17.90
2006,07,18,12,20,18.00
2006,07,18,12,21,18.10
2006,07,18,12,22,18.20
2006,07,18,12,23,18.30
2006,07,18,12,24,18.40
2006,07,18,12,25,18.50
2006,07,18,12,26,18.60
2006,07,18,12,27,18.80
2006,07,18,12,28,18.80
2006,07,18,12,29,18.90
2006,07,18,12,30,18.90
2006,07,18,12,31,18.90
2006,07,18,12,32,18.90
2006,07,18,12,33,18.80
2006,07,18,12,34,18.70
2006,07,18,12,35,18.70
2006,07,18,12,36,18.60
2006,07,18,12,37,18.60
2006,07,18,12,38,18.70
2006,07,18,12,39,18.80
2006,07,18,12,40,18.80
2006,07,18,12,41,18.90
2006,07,18,12,42,18.90
2006,07,18,12,43,19.00
2006,07,18,12,44,19.10
2006,07,18,12,45,19.10
2006,07,18,12,46,19.10
2006,07,18,12,47,19.10
2006,07,18,12,48,19.10
2006,07,18,12,49,19.20
2006,07,18,12,50,19.20
2006,07,18,12,51,19.20
2006,07,18,12,52,19.20
2006,07,18,12,53,19.10
2006,07,18,12,54,19.10
2006,07,18,12,55,19.20
2006,07,18,12,56,19.20
2006,07,18,12,57,19.20
2006,07,18,12,58,19.20
2006,07,18,12,59,19.20
2006,07,18,13,00,19.30
2006,07,18,13,01,19.30
2006,07,18,13,02,19.30
2006,07,18,13,03,19.30
2006,07,18,13,04,19.40
2006,07,18,13,05,19.30
2006,07,18,13,06,19.30
2006,07,18,13,07,19.30
2006,07,18,13,08,19.40
2006,07,18,13,09,19.50
2006,07,18,13,10,19.60
2006,07,18,13,11,19.60
2006,07,18,13,12,19.60
2006,07,18,13,13,19.70
2006,07,18,13,14,19.70
2006,07,18,13,15,19.80
2006,07,18,13,16,19.90
2006,07,18,13,17,20.00
2006,07,18,13,18,20.20
2006,07,18,13,19,20.40
2006,07,18,13,20,20.50
2006,07,18,13,21,20.50
2006,07,18,13,22,20.60
2006,07,18,13,23,20.70
2006,07,18,13,24,20.80
2006,07,18,13,25,20.90
2006,07,18,13,26,21.00
2006,07,18,13,27,21.00
2006,07,18,13,28,21.10
2006,07,18,13,29,21.20
2006,07,18,13,30,21.20
2006,07,18,13,31,21.10
2006,07,18,13,32,21.10
2006,07,18,13,33,21.10
2006,07,18,13,34,21.20
2006,07,18,13,35,21.20
2006,07,18,13,36,21.20
2006,07,18,13,37,21.30
2006,07,18,13,38,21.30
2006,07,18,13,39,21.30
2006,07,18,13,40,21.30
2006,07,18,13,41,21.30
2006,07,18,13,42,21.50
2006,07,18,13,43,21.60
2006,07,18,13,44,21.80
2006,07,18,13,45,21.90
2006,07,18,13,46,22.00
2006,07,18,13,47,22.10
2006,07,18,13,48,22.20
2006,07,18,13,49,22.10
2006,07,18,13,50,21.90
2006,07,18,13,51,21.70
2006,07,18,13,52,21.70
2006,07,18,13,53,21.70
2006,07,18,13,54,21.60
2006,07,18,13,55,21.50
2006,07,18,13,56,21.40
2006,07,18,13,57,21.40
2006,07,18,13,58,21.50
2006,07,18,13,59,21.60
2006,07,18,14,00,21.60
2006,07,18,14,01,21.60
2006,07,18,14,02,21.70
2006,07,18,14,03,21.70
2006,07,18,14,04,21.70
2006,07,18,14,05,21.60
2006,07,18,14,06,21.60
2006,07,18,14,07,21.60
2006,07,18,14,08,21.60
2006,07,18,14,09,21.60
2006,07,18,14,10,21.70
2006,07,18,14,11,21.60
2006,07,18,14,12,21.60
2006,07,18,14,13,21.60
2006,07,18,14,14,21.50
2006,07,18,14,15,21.40
2006,07,18,14,16,21.40
2006,07,18,14,17,21.40
2006,07,18,14,18,21.30
2006,07,18,14,19,21.50
2006,07,18,14,20,21.50
2006,07,18,14,21,21.50
2006,07,18,14,22,21.50
2006,07,18,14,23,21.50
2006,07,18,14,24,21.60
2006,07,18,14,25,21.60
2006,07,18,14,26,21.60
2006,07,18,14,27,21.60
2006,07,18,14,28,21.60
2006,07,18,14,29,21.60
2006,07,18,14,30,21.70
2006,07,18,14,31,21.70
2006,07,18,14,32,21.80
2006,07,18,14,33,21.80
2006,07,18,14,34,21.80
2006,07,18,14,35,21.70
2006,07,18,14,36,21.50
2006,07,18,14,37,21.40
2006,07,18,14,38,21.20
2006,07,18,14,39,21.20
2006,07,18,14,40,21.20
2006,07,18,14,41,21.20
2006,07,18,14,42,21.10
2006,07,18,14,43,21.10
2006,07,18,14,44,21.20
2006,07,18,14,45,21.20
2006,07,18,14,46,21.30
2006,07,18,14,47,21.30
2006,07,18,14,48,21.30
2006,07,18,14,49,21.20
2006,07,18,14,50,21.10
2006,07,18,14,51,21.00
2006,07,18,14,52,20.90
2006,07,18,14,53,20.80
2006,07,18,14,54,20.70
2006,07,18,14,55,20.60
2006,07,18,14,56,20.50
2006,07,18,14,57,20.50
2006,07,18,14,58,20.50
2006,07,18,14,59,20.50
2006,07,18,15,00,20.60
2006,07,18,15,01,20.70
2006,07,18,15,02,20.70
2006,07,18,15,03,20.70
2006,07,18,15,04,20.80
2006,07,18,15,05,20.70
2006,07,18,15,06,20.70
2006,07,18,15,07,20.80
2006,07,18,15,08,20.90
2006,07,18,15,09,21.00
2006,07,18,15,10,21.20
2006,07,18,15,11,21.30
2006,07,18,15,12,21.30
2006,07,18,15,13,21.30
2006,07,18,15,14,21.30
2006,07,18,15,15,21.30
2006,07,18,15,16,21.30
2006,07,18,15,17,21.20
2006,07,18,15,18,21.10
2006,07,18,15,19,21.10
2006,07,18,15,20,21.10
2006,07,18,15,21,21.20
2006,07,18,15,22,21.20
2006,07,18,15,23,21.30
2006,07,18,15,24,21.30
2006,07,18,15,25,21.40
2006,07,18,15,26,21.40
2006,07,18,15,27,21.40
2006,07,18,15,28,21.40
2006,07,18,15,29,21.50
2006,07,18,15,30,21.70
2006,07,18,15,31,21.80
2006,07,18,15,32,21.90
2006,07,18,15,33,22.00
2006,07,18,15,34,22.10
2006,07,18,15,35,22.10
2006,07,18,15,36,21.90
2006,07,18,15,37,21.90
2006,07,18,15,38,22.00
2006,07,18,15,39,22.00
2006,07,18,15,40,22.20
2006,07,18,15,41,22.20
2006,07,18,15,42,22.20
2006,07,18,15,43,22.30
2006,07,18,15,44,22.30
2006,07,18,15,45,22.30
2006,07,18,15,46,22.20
2006,07,18,15,47,22.10
2006,07,18,15,48,22.10
2006,07,18,15,49,22.20
2006,07,18,15,50,22.30
2006,07,18,15,51,22.50
2006,07,18,15,52,22.50
2006,07,18,15,53,22.50
2006,07,18,15,54,22.50
2006,07,18,15,55,22.40
2006,07,18,15,56,22.40
2006,07,18,15,57,22.30
2006,07,18,15,58,22.10
2006,07,18,15,59,21.90
2006,07,18,16,00,21.80
2006,07,18,16,01,21.90
2006,07,18,16,02,21.90
2006,07,18,16,03,22.00
2006,07,18,16,04,22.20
2006,07,18,16,05,22.20
2006,07,18,16,06,22.30
2006,07,18,16,07,22.40
2006,07,18,16,08,22.40
2006,07,18,16,09,22.50
2006,07,18,16,10,22.60
2006,07,18,16,11,22.60
2006,07,18,16,12,22.60
2006,07,18,16,13,22.60
2006,07,18,16,14,22.70
2006,07,18,16,15,22.90
2006,07,18,16,16,22.90
2006,07,18,16,17,22.90
2006,07,18,16,18,22.90
2006,07,18,16,19,22.90
2006,07,18,16,20,22.90
2006,07,18,16,21,22.90
2006,07,18,16,22,22.90
2006,07,18,16,23,22.80
2006,07,18,16,24,22.90
2006,07,18,16,25,22.90
2006,07,18,16,26,22.90
2006,07,18,16,27,22.90
2006,07,18,16,28,22.90
2006,07,18,16,29,22.80
2006,07,18,16,30,22.60
2006,07,18,16,31,22.40
2006,07,18,16,32,22.40
2006,07,18,16,33,22.40
2006,07,18,16,34,22.30
2006,07,18,16,35,22.20
2006,07,18,16,36,22.30
2006,07,18,16,37,22.40
2006,07,18,16,38,22.50
2006,07,18,16,39,22.60
2006,07,18,16,40,22.60
2006,07,18,16,41,22.70
2006,07,18,16,42,22.70
2006,07,18,16,43,22.70
2006,07,18,16,44,22.80
2006,07,18,16,45,22.70
2006,07,18,16,46,22.70
2006,07,18,16,47,22.60
2006,07,18,16,48,22.60
2006,07,18,16,49,22.60
2006,07,18,16,50,22.70
2006,07,18,16,51,22.70
2006,07,18,16,52,22.70
2006,07,18,16,53,22.80
2006,07,18,16,54,22.80
2006,07,18,16,55,22.80
2006,07,18,16,56,22.90
2006,07,18,16,57,23.00
2006,07,18,16,58,23.10
2006,07,18,16,59,23.10
2006,07,18,17,00,22.90
2006,07,18,17,01,22.90
2006,07,18,17,02,22.80
2006,07,18,17,03,22.80
2006,07,18,17,04,22.70
2006,07,18,17,05,22.70
2006,07,18,17,06,22.70
2006,07,18,17,07,22.60
2006,07,18,17,08,22.50
2006,07,18,17,09,22.50
2006,07,18,17,10,22.50
2006,07,18,17,11,22.50
2006,07,18,17,12,22.50
2006,07,18,17,13,22.40
2006,07,18,17,14,22.40
2006,07,18,17,15,22.30
2006,07,18,17,16,22.40
2006,07,18,17,17,22.40
2006,07,18,17,18,22.50
2006,07,18,17,19,22.60